Location: ??????
(41.3164°N, 22.6615°E)
Time: 01:34:42
(UTC+00:00)

UWE-3 - Pass Details

Date: 04 July 2022
Orbit: 583 x 677 km, 97.7° (Epoch: 16 August)

Event Time Altitude Azimuth Distance (km) Brightness Sun altitude
Rises 01:37:33 0° 16° (NNE) 2,911 ? -13.0°
Reaches altitude 10° 01:39:46 10° 21° (NNE) 2,015 ? -12.7°
Maximum altitude 01:44:05 57° 100° (E) 755 ? -12.1°
Drops below altitude 10° 01:48:31 10° 180° (S) 2,056 ? -11.5°
Enters shadow 01:49:10 - 181° (S) 2,322 ? -11.4°
